OneWeb SL0370

operational
NORAD ID: 49296 Int'l Des: 2021-090 Owner: ONEWEBN Country: UK Constellation: oneweb
LEOCIRCULARPOLARONEWEB_TYPE

About OneWeb SL0370

Description loading...

Live Position

Loading 3D Globe...

Upcoming Passes

Altitude History

Altitude vs Time

uPlot chart will show altitude changes over time

Two-Line Element Set

1 49296U 21090T 25258.17536528 .00000019 00000-0 15017-4 0 9999
2 49296 87.9276 329.2710 0002020 108.3157 251.8196 13.20769558193566
Epoch: Sep 15, 2025 • Age: 11 hours

Current Status

Altitude 1207.8 km
Velocity 7.25 km/s
Sub-Earth Point -63.85°S, 108.23°E
Launch Date Oct 14, 2021
Age 3.9 years
Type internet

Technical Details

Classification Payload
Mass 148.00 kg
Dry Mass 140.00 kg
Total Mass 148.00 kg
Length 1.30 m
Diameter 1.00 m
Span 5.00 m
Shape Trapezoid+2 pan
Manufacturer ONEWUS
Bus Type ARROW
Phase Status In Orbit
Owner/State ONEWEBN/UK

Large Constellations

Loading constellations...